• In Austria
  • List of Countries
  • For 7 days
  • Water Temperature
  • Satellite Maps
  • Weather Map
  • News
  • Weather Widgets
  • user-avatar
    Login

    Hourly Weather Salta

    Today, 25 May, Friday

    Time Temperature Precipitation Wind Pressure Humidity
    00:00 +12°C° 0 mm 1 mps 652 mmHg 76%
    01:00 +12°C° 0 mm 1 mps 652 mmHg 73%
    02:00 +12°C° 0 mm 1 mps 652 mmHg 71%
    03:00 +12°C° 0 mm 1 mps 652 mmHg 70%
    04:00 +12°C° 0 mm 1 mps 652 mmHg 68%
    05:00 +12°C° 0 mm 1 mps 652 mmHg 66%
    06:00 +12°C° 0 mm 1 mps 653 mmHg 64%
    07:00 +13°C° 0 mm 1 mps 653 mmHg 62%
    08:00 +14°C° 0 mm 1 mps 654 mmHg 59%
    09:00 +16°C° 0 mm 1 mps 654 mmHg 52%
    10:00 +19°C° 0 mm 1 mps 655 mmHg 45%
    11:00 +21°C° 0 mm 2 mps 655 mmHg 38%
    12:00 +23°C° 0 mm 2 mps 655 mmHg 36%
    13:00 +23°C° 0 mm 2 mps 654 mmHg 34%
    14:00 +24°C° 0 mm 2 mps 654 mmHg 33%
    15:00 +23°C° 0 mm 2 mps 653 mmHg 37%
    16:00 +21°C° 0 mm 2 mps 653 mmHg 42%
    17:00 +21°C° 0 mm 1 mps 652 mmHg 47%
    18:00 +19°C° 0 mm 1 mps 652 mmHg 53%
    19:00 +16°C° 0 mm 1 mps 651 mmHg 59%
    20:00 +14°C° 0 mm 1 mps 651 mmHg 65%
    21:00 +13°C° 0 mm 1 mps 651 mmHg 64%
    22:00 +13°C° 0 mm 1 mps 651 mmHg 64%
    23:00 +12°C° 0 mm 1 mps 651 mmHg 63%

    Tomorrow, 26 May, Saturday

    Time Temperature Precipitation Wind Pressure Humidity
    00:00 +13°C° 0 mm 1 mps 650 mmHg 61%
    01:00 +13°C° 0 mm 1 mps 650 mmHg 59%
    02:00 +13°C° 0 mm 2 mps 650 mmHg 57%
    03:00 +13°C° 0 mm 2 mps 650 mmHg 55%
    04:00 +13°C° 0 mm 2 mps 649 mmHg 54%
    05:00 +13°C° 0 mm 2 mps 649 mmHg 53%
    06:00 +13°C° 0 mm 2 mps 650 mmHg 52%
    07:00 +14°C° 0 mm 2 mps 650 mmHg 51%
    08:00 +14°C° 0 mm 2 mps 650 mmHg 51%
    09:00 +17°C° 0 mm 2 mps 651 mmHg 47%
    10:00 +19°C° 0 mm 2 mps 651 mmHg 44%
    11:00 +21°C° 0 mm 2 mps 651 mmHg 41%
    12:00 +23°C° 0 mm 2 mps 651 mmHg 38%
    13:00 +24°C° 0 mm 2 mps 650 mmHg 36%
    14:00 +26°C° 0 mm 3 mps 650 mmHg 33%
    15:00 +24°C° 0 mm 2 mps 650 mmHg 39%
    16:00 +23°C° 0 mm 2 mps 649 mmHg 44%
    17:00 +21°C° 0 mm 2 mps 649 mmHg 50%
    18:00 +19°C° 0 mm 2 mps 649 mmHg 54%
    19:00 +18°C° 0 mm 1 mps 649 mmHg 59%
    20:00 +15°C° 0 mm 1 mps 649 mmHg 64%
    21:00 +15°C° 0 mm 1 mps 649 mmHg 62%
    22:00 +15°C° 0 mm 1 mps 650 mmHg 61%
    23:00 +15°C° 0 mm 1 mps 650 mmHg 60%

    Day after tomorrow, 27 May, Sunday

    Time Temperature Precipitation Wind Pressure Humidity
    00:00 +15°C° 0 mm 1 mps 650 mmHg 58%
    01:00 +15°C° 0 mm 1 mps 650 mmHg 57%
    02:00 +15°C° 0 mm 2 mps 650 mmHg 55%
    03:00 +15°C° 0 mm 1 mps 650 mmHg 54%
    04:00 +14°C° 0 mm 1 mps 650 mmHg 53%
    05:00 +14°C° 0 mm 1 mps 650 mmHg 53%
    06:00 +15°C° 0 mm 1 mps 651 mmHg 51%
    07:00 +16°C° 0 mm 1 mps 652 mmHg 49%
    08:00 +18°C° 0 mm 1 mps 653 mmHg 48%
    09:00 +20°C° 0 mm 1 mps 653 mmHg 44%
    10:00 +22°C° 0 mm 1 mps 654 mmHg 41%
    11:00 +25°C° 0 mm 2 mps 655 mmHg 38%
    12:00 +25°C° 0 mm 2 mps 654 mmHg 38%
    13:00 +26°C° 0 mm 2 mps 653 mmHg 38%
    14:00 +26°C° 0 mm 2 mps 652 mmHg 38%
    15:00 +25°C° 0 mm 2 mps 652 mmHg 43%
    16:00 +24°C° 0 mm 2 mps 651 mmHg 49%
    17:00 +23°C° 0 mm 2 mps 651 mmHg 54%
    18:00 +20°C° 0 mm 2 mps 651 mmHg 62%
    19:00 +19°C° 0 mm 2 mps 651 mmHg 69%
    20:00 +18°C° 0 mm 1 mps 651 mmHg 77%
    21:00 +18°C° 0 mm 1 mps 651 mmHg 77%
    22:00 +16°C° 0 mm 1 mps 651 mmHg 77%
    23:00 +16°C° 0 mm 2 mps 651 mmHg 76%

    28 May, Monday

    Time Temperature Precipitation Wind Pressure Humidity
    00:00 +16°C° 0 mm 2 mps 650 mmHg 73%
    01:00 +16°C° 0 mm 2 mps 650 mmHg 70%
    02:00 +16°C° 0 mm 2 mps 650 mmHg 66%
    03:00 +16°C° 0 mm 2 mps 649 mmHg 65%
    04:00 +16°C° 0 mm 2 mps 649 mmHg 64%
    05:00 +16°C° 0 mm 2 mps 649 mmHg 63%
    06:00 +17°C° 0 mm 2 mps 649 mmHg 61%
    07:00 +17°C° 0 mm 2 mps 650 mmHg 58%
    08:00 +18°C° 0 mm 2 mps 650 mmHg 56%
    09:00 +19°C° 0 mm 2 mps 650 mmHg 55%
    10:00 +21°C° 0 mm 3 mps 650 mmHg 54%
    11:00 +22°C° 0 mm 3 mps 650 mmHg 53%
    12:00 +24°C° 0 mm 3 mps 649 mmHg 52%
    13:00 +24°C° 0 mm 3 mps 649 mmHg 51%
    14:00 +25°C° 0 mm 3 mps 648 mmHg 51%
    15:00 +24°C° 0 mm 3 mps 648 mmHg 54%
    16:00 +23°C° 0 mm 2 mps 648 mmHg 58%
    17:00 +23°C° 0 mm 2 mps 647 mmHg 62%
    18:00 +21°C° 0 mm 2 mps 647 mmHg 62%
    19:00 +19°C° 0 mm 2 mps 648 mmHg 62%
    20:00 +18°C° 0 mm 2 mps 648 mmHg 62%
    21:00 +18°C° 0 mm 2 mps 648 mmHg 59%
    22:00 +18°C° 0 mm 2 mps 648 mmHg 56%
    23:00 +18°C° 0 mm 2 mps 648 mmHg 53%

    29 May, Tuesday

    Time Temperature Precipitation Wind Pressure Humidity
    00:00 +18°C° 0 mm 2 mps 648 mmHg 50%
    01:00 +18°C° 0 mm 2 mps 648 mmHg 48%
    02:00 +18°C° 0 mm 3 mps 647 mmHg 45%
    03:00 +18°C° 0 mm 3 mps 647 mmHg 44%
    04:00 +17°C° 0 mm 3 mps 647 mmHg 42%
    05:00 +17°C° 0 mm 3 mps 647 mmHg 40%
    06:00 +17°C° 0 mm 2 mps 647 mmHg 39%
    07:00 +18°C° 0 mm 2 mps 648 mmHg 39%
    08:00 +18°C° 0 mm 2 mps 648 mmHg 38%
    09:00 +21°C° 0 mm 2 mps 649 mmHg 33%
    10:00 +25°C° 0 mm 2 mps 650 mmHg 27%
    11:00 +28°C° 0 mm 2 mps 650 mmHg 22%
    12:00 +29°C° 0 mm 2 mps 650 mmHg 21%
    13:00 +29°C° 0 mm 2 mps 649 mmHg 20%
    14:00 +30°C° 0 mm 2 mps 649 mmHg 19%
    15:00 +29°C° 0 mm 2 mps 649 mmHg 25%
    16:00 +27°C° 0 mm 2 mps 648 mmHg 32%
    17:00 +25°C° 0 mm 2 mps 648 mmHg 39%
    18:00 +23°C° 0.1 mm 1 mps 648 mmHg 47%
    19:00 +21°C° 0.1 mm 1 mps 649 mmHg 56%
    20:00 +19°C° 0.1 mm 1 mps 649 mmHg 64%
    21:00 +19°C° 0.2 mm 1 mps 649 mmHg 64%
    22:00 +18°C° 0.2 mm 1 mps 649 mmHg 63%
    23:00 +17°C° 0.2 mm 2 mps 649 mmHg 63%

    30 May, Wednesday

    Time Temperature Precipitation Wind Pressure Humidity
    00:00 +17°C° 0 mm 2 mps 649 mmHg 59%
    01:00 +17°C° 0 mm 2 mps 649 mmHg 56%
    02:00 +16°C° 0 mm 2 mps 649 mmHg 53%
    03:00 +16°C° 0 mm 2 mps 648 mmHg 52%
    04:00 +16°C° 0 mm 1 mps 648 mmHg 52%
    05:00 +15°C° 0 mm 1 mps 648 mmHg 51%
    06:00 +16°C° 0 mm 1 mps 648 mmHg 52%
    07:00 +18°C° 0 mm 1 mps 649 mmHg 53%
    08:00 +18°C° 0 mm 1 mps 650 mmHg 54%
    09:00 +19°C° 0 mm 2 mps 650 mmHg 50%
    10:00 +23°C° 0 mm 2 mps 650 mmHg 46%
    11:00 +25°C° 0 mm 2 mps 651 mmHg 42%
    12:00 +26°C° 0 mm 2 mps 650 mmHg 39%
    13:00 +26°C° 0 mm 2 mps 649 mmHg 37%
    14:00 +27°C° 0 mm 3 mps 649 mmHg 34%
    15:00 +26°C° 0 mm 2 mps 648 mmHg 40%
    16:00 +24°C° 0 mm 2 mps 648 mmHg 46%
    17:00 +23°C° 0 mm 2 mps 648 mmHg 51%
    18:00 +20°C° 0 mm 2 mps 648 mmHg 60%
    19:00 +20°C° 0 mm 1 mps 649 mmHg 68%
    20:00 +18°C° 0 mm 1 mps 649 mmHg 77%
    21:00 +16°C° 0 mm 1 mps 649 mmHg 77%
    22:00 +16°C° 0 mm 1 mps 650 mmHg 78%
    23:00 +16°C° 0 mm 1 mps 650 mmHg 78%
    Show more